CW0136 Weather Reports


time (UTC)temp
C
wind
direction
speed
KPH
gust
KPH
rain 1hr
cm
rain 24hr
cm
rain mn
cm
humidity
%
barometer
mb
20260506124611 13 273 0.0 0.0 0.00 0.03 0.00 79 1019.6
20260506123610 13 273 0.0 0.0 0.00 0.03 0.00 79 1019.5
20260506122611 13 273 0.0 4.8 0.00 0.03 0.00 79 1019.5
20260506121611 13 273 0.0 4.8 0.00 0.03 0.00 79 1019.4
20260506120611 13 273 0.0 4.8 0.00 0.03 0.00 79 1019.3
20260506115611 13 273 0.0 4.8 0.00 0.03 0.00 79 1019.2
20260506114611 13 273 0.0 4.8 0.00 0.03 0.00 79 1019.3
20260506113610 13 273 0.0 3.2 0.00 0.03 0.00 79 1019.2
20260506112610 13 273 1.6 4.8 0.00 0.03 0.00 79 1019.2
20260506111610 13 273 1.6 4.8 0.00 0.03 0.00 79 1019.1
20260506110612 13 273 0.0 4.8 0.00 0.03 0.00 79 1019.1
20260506105610 13 273 0.0 4.8 0.00 0.03 0.00 79 1019.0
20260506104610 13 273 1.6 4.8 0.00 0.03 0.00 79 1019.0
20260506103610 13 273 1.6 4.8 0.00 0.03 0.00 79 1018.7
20260506102610 13 273 0.0 4.8 0.00 0.03 0.00 79 1018.7
20260506101610 13 273 0.0 4.8 0.00 0.03 0.00 79 1018.6
20260506100611 13 273 0.0 4.8 0.00 0.03 0.00 79 1018.6
20260506095611 13 273 1.6 4.8 0.00 0.03 0.00 80 1018.6
20260506094610 13 273 3.2 9.7 0.00 0.03 0.00 80 1018.5
20260506092610 13 277 3.2 8.0 0.00 0.03 0.00 81 1018.5
20260506090610 13 273 3.2 8.0 0.00 0.03 0.00 82 1018.6
20260506085610 13 273 4.8 8.0 0.00 0.03 0.00 82 1018.6
20260506084610 12 273 0.0 0.0 0.00 0.03 0.00 81 1018.6
20260506083611 12 273 0.0 0.0 0.00 0.03 0.00 81 1018.6
20260506082610 12 273 0.0 0.0 0.00 0.03 0.00 81 1018.8
20260506081610 12 273 0.0 0.0 0.00 0.03 0.00 80 1018.7
20260506071610 13 273 0.0 3.2 0.00 0.03 0.00 78 1018.2
20260506070610 13 273 0.0 4.8 0.00 0.03 0.00 78 1018.1
20260506061610 13 273 4.8 9.7 0.00 0.03 0.03 77 1017.6
20260506050610 15 263 3.2 9.7 0.00 0.03 0.03 74 1017.0
20260506044609 15 254 4.8 8.0 0.00 0.03 0.03 73 1016.7
20260506042610 15 253 1.6 4.8 0.00 0.03 0.03 72 1016.6
20260506041610 15 253 3.2 4.8 0.00 0.03 0.03 71 1016.5
20260506040609 15 253 0.0 4.8 0.00 0.03 0.03 70 1016.4
20260506035610 15 253 1.6 4.8 0.00 0.03 0.03 70 1016.1
20260506034610 16 253 0.0 3.2 0.00 0.03 0.03 70 1016.0
20260506032610 16 253 0.0 4.8 0.00 0.03 0.03 69 1015.9
20260506031611 16 253 0.0 4.8 0.00 0.03 0.03 69 1015.9
20260506025612 16 253 0.0 4.8 0.00 0.03 0.03 68 1015.5
20260506024610 17 253 1.6 4.8 0.00 0.03 0.03 68 1015.5
20260506022611 17 253 0.0 3.2 0.00 0.03 0.03 67 1015.3
20260506021611 17 253 0.0 4.8 0.00 0.03 0.03 66 1015.2
20260506015611 17 253 0.0 4.8 0.00 0.03 0.03 65 1015.1
20260506014610 17 253 0.0 4.8 0.00 0.03 0.03 65 1015.1
20260506013611 17 253 0.0 4.8 0.00 0.03 0.03 64 1015.1
20260506012610 17 253 3.2 4.8 0.00 0.03 0.03 63 1015.1
20260506011611 18 253 1.6 4.8 0.00 0.03 0.03 63 1015.1
20260506010611 18 253 1.6 8.0 0.00 0.03 0.03 63 1015.0
20260506005610 18 253 1.6 4.8 0.00 0.03 0.03 64 1015.0
20260506004611 17 253 0.0 4.8 0.00 0.03 0.03 66 1015.1
20260506003611 17 253 3.2 8.0 0.00 0.03 0.03 66 1015.0
20260506002610 17 254 1.6 9.7 0.00 0.03 0.03 66 1015.0
20260506001611 17 258 1.6 4.8 0.00 0.03 0.03 67 1015.0
20260505235610 17 258 0.0 8.0 0.00 0.03 0.03 67 1014.9
20260505234610 17 257 1.6 8.0 0.00 0.03 0.03 67 1014.9
20260505233611 17 257 3.2 4.8 0.00 0.03 0.03 67 1015.0
20260505232611 17 257 3.2 8.0 0.00 0.03 0.03 67 1015.0
20260505230612 17 260 1.6 4.8 0.00 0.03 0.03 69 1014.9
20260505225610 17 260 3.2 4.8 0.00 0.03 0.03 69 1014.9
20260505224610 16 260 0.0 3.2 0.00 0.03 0.03 70 1015.0
20260505223610 16 260 1.6 4.8 0.00 0.03 0.03 70 1015.2
20260505222611 16 260 3.2 4.8 0.00 0.03 0.03 71 1015.3
20260505221610 16 260 1.6 8.0 0.00 0.03 0.03 71 1015.4
20260505215610 16 259 3.2 4.8 0.00 0.03 0.03 73 1015.4
20260505214610 16 259 1.6 4.8 0.00 0.03 0.03 73 1015.4
20260505213610 16 259 1.6 8.0 0.00 0.03 0.03 74 1015.5
20260505212610 16 259 1.6 8.0 0.00 0.03 0.03 74 1015.5
20260505211611 16 259 1.6 9.7 0.00 0.03 0.03 76 1015.5
20260505210611 16 269 1.6 8.0 0.00 0.03 0.03 79 1015.4
20260505205610 15 269 1.6 8.0 0.00 0.03 0.03 81 1015.5
20260505204610 15 269 1.6 8.0 0.00 0.03 0.03 82 1015.7
20260505203610 15 269 1.6 4.8 0.03 0.03 0.03 83 1015.8
20260505202610 14 269 1.6 9.7 0.03 0.03 0.03 84 1015.8
20260505195610 14 265 4.8 9.7 0.03 0.03 0.03 85 1015.9
20260505194610 14 270 1.6 9.7 0.03 0.03 0.03 87 1015.9
20260505193610 13 275 4.8 9.7 0.00 0.00 0.00 88 1015.9
20260505191610 13 275 1.6 8.0 0.00 0.00 0.00 89 1016.0
20260505190610 13 275 3.2 4.8 0.00 0.00 0.00 90 1015.9
20260505184610 13 275 1.6 8.0 0.00 0.00 0.00 91 1015.7
20260505183610 13 275 1.6 11.3 0.00 0.00 0.00 91 1015.7
20260505182610 13 263 1.6 9.7 0.00 0.00 0.00 92 1015.6
20260505180610 12 297 1.6 8.0 0.00 0.00 0.00 92 1015.4
20260505175610 12 297 1.6 4.8 0.00 0.00 0.00 92 1015.4
20260505174609 12 297 1.6 8.0 0.00 0.00 0.00 92 1015.4
20260505173609 12 297 0.0 4.8 0.00 0.00 0.00 92 1015.5
20260505172609 12 297 0.0 8.0 0.00 0.00 0.00 92 1015.5
20260505171610 12 297 1.6 4.8 0.00 0.00 0.00 92 1015.4
20260505170610 12 297 1.6 4.8 0.00 0.00 0.00 92 1015.4
20260505165610 12 297 0.0 1.6 0.00 0.00 0.00 92 1015.4
20260505164611 12 297 1.6 4.8 0.00 0.00 0.00 93 1015.3
20260505163611 12 297 0.0 4.8 0.00 0.00 0.00 93 1015.2
20260505162610 12 302 0.0 1.6 0.00 0.00 0.00 93 1015.3
20260505161609 12 302 0.0 0.0 0.00 0.00 0.00 93 1015.3
20260505152611 12 329 0.0 3.2 0.00 0.00 0.00 93 1014.9
20260505151611 12 293 0.0 1.6 0.00 0.00 0.00 93 1014.9
20260505150611 12 293 0.0 0.0 0.00 0.00 0.00 93 1014.9
20260505140611 11 298 0.0 0.0 0.00 0.00 0.00 92 1014.5